Overview Statistics Trail Chart Weather Telemetry Raw packets
 

This is the latest recevied weather packets stored in our database for station/object KD4EG. If no packets are shown the sender has not sent any weather packets the latest 10 day(s).

<< 51 52 53 54 55 56 57 >>
Time Temp. Humidity Pressure Rain* Wind** Luminosity Snow
1788302813 32.78° C 53% 1020.2 hPa 0 mm - 71 W/m² -
1788302509 32.78° C 53% 1020.1 hPa 0 mm - 84 W/m² -
1788302204 32.78° C 53% 1020.1 hPa 0 mm - 85 W/m² -
1788301900 32.78° C 53% 1020 hPa 0 mm - 83 W/m² -
1788301596 33.33° C 53% 1020 hPa 0 mm - 95 W/m² -
1788301292 33.33° C 53% 1020 hPa 0 mm - 106 W/m² -
1788300987 33.33° C 52% 1020 hPa 0 mm - 100 W/m² -
1788300683 33.33° C 52% 1019.9 hPa 0 mm - 117 W/m² -
1788300381 33.33° C 52% 1019.7 hPa 0 mm - 127 W/m² -
1788300081 33.89° C 51% 1019.7 hPa 0 mm - 140 W/m² -
1788299779 33.89° C 51% 1019.8 hPa 0 mm - 140 W/m² -
1788299474 34.44° C 51% 1020 hPa 0 mm - 161 W/m² -
1788299173 34.44° C 51% 1019.8 hPa 0 mm - 189 W/m² -
1788298872 34.44° C 52% 1020.2 hPa 0 mm - 192 W/m² -
1788298567 34.44° C 51% 1020 hPa 0 mm - 242 W/m² -
1788298262 35° C 50% 1019.9 hPa 0 mm - 271 W/m² -
1788297961 35° C 50% 1020.1 hPa 0 mm - 283 W/m² -
1788297678 35° C 50% 1020 hPa 0 mm - 291 W/m² -
1788297353 35° C 50% 1020 hPa 0 mm - 307 W/m² -
1788297050 35° C 49% 1020.3 hPa 0 mm - 293 W/m² -
1788296744 35° C 49% 1020.1 hPa 0 mm - 323 W/m² -
1788296441 35° C 48% 1020.1 hPa 0 mm - 296 W/m² -
1788296135 35° C 49% 1020.1 hPa 0 mm - 333 W/m² -
1788295830 35° C 48% 1020.2 hPa 0 mm - 366 W/m² -
1788295527 35° C 48% 1020.2 hPa 0 mm - 405 W/m² -

* Rain latest hour (hover to see other rain measurements)
** Current wind speed in m/s (hover to see current wind gust speed)